TimeCST,TemperatureF,Dew PointF,Humidity,Sea Level PressureIn,VisibilityMPH,Wind Direction,Wind SpeedMPH,Gust SpeedMPH,PrecipitationIn,Events,Conditions,WindDirDegrees,DateUTC
12:53 AM,19.0,12.0,74,30.34,10.0,Calm,Calm,-,N/A,,Clear,0,2014-01-30 06:53:00
1:53 AM,17.1,12.0,81,30.33,10.0,Calm,Calm,-,N/A,,Clear,0,2014-01-30 07:53:00
2:53 AM,17.1,12.0,81,30.31,10.0,Calm,Calm,-,N/A,,Clear,0,2014-01-30 08:53:00
3:53 AM,17.1,10.9,77,30.30,10.0,ESE,3.5,-,N/A,,Clear,120,2014-01-30 09:53:00
4:53 AM,17.1,10.9,77,30.29,10.0,ESE,3.5,-,N/A,,Clear,120,2014-01-30 10:53:00
5:53 AM,17.1,9.0,71,30.31,10.0,Calm,Calm,-,N/A,,Clear,0,2014-01-30 11:53:00
6:53 AM,18.0,8.1,65,30.30,10.0,Calm,Calm,-,N/A,,Clear,0,2014-01-30 12:53:00
7:53 AM,21.0,12.0,68,30.29,10.0,SE,5.8,-,N/A,,Clear,140,2014-01-30 13:53:00
8:53 AM,27.0,10.9,51,30.27,10.0,SE,11.5,-,N/A,,Clear,130,2014-01-30 14:53:00
9:53 AM,33.1,7.0,34,30.29,10.0,SE,9.2,-,N/A,,Clear,130,2014-01-30 15:53:00
10:53 AM,37.0,1.9,23,30.28,10.0,SSE,9.2,-,N/A,,Clear,150,2014-01-30 16:53:00
11:53 AM,41.0,3.9,21,30.24,10.0,Variable,4.6,-,N/A,,Clear,0,2014-01-30 17:53:00
12:53 PM,44.1,3.9,19,30.19,10.0,SE,6.9,-,N/A,,Clear,140,2014-01-30 18:53:00
1:53 PM,46.9,1.9,16,30.13,10.0,South,10.4,-,N/A,,Clear,190,2014-01-30 19:53:00
2:53 PM,48.9,3.9,16,30.12,10.0,South,10.4,17.3,N/A,,Clear,190,2014-01-30 20:53:00
3:53 PM,48.9,6.1,18,30.12,10.0,SSE,5.8,-,N/A,,Clear,160,2014-01-30 21:53:00
4:53 PM,46.9,8.1,21,30.10,10.0,SE,8.1,-,N/A,,Clear,140,2014-01-30 22:53:00
5:53 PM,39.9,10.0,29,30.09,10.0,SSE,8.1,-,N/A,,Clear,150,2014-01-30 23:53:00
6:53 PM,39.9,9.0,28,30.10,10.0,SSE,5.8,-,N/A,,Clear,150,2014-01-31 00:53:00
7:53 PM,37.0,10.0,33,30.11,10.0,SSE,5.8,-,N/A,,Clear,150,2014-01-31 01:53:00
8:53 PM,37.0,10.9,34,30.08,10.0,SE,8.1,-,N/A,,Clear,140,2014-01-31 02:53:00
9:53 PM,37.9,12.0,35,30.08,10.0,SSE,8.1,-,N/A,,Clear,160,2014-01-31 03:53:00
10:53 PM,37.0,16.0,42,30.11,10.0,South,5.8,-,N/A,,Clear,180,2014-01-31 04:53:00
11:53 PM,35.1,21.9,59,30.11,10.0,South,5.8,-,N/A,,Clear,170,2014-01-31 05:53:00